| time (UTC) | temp F | wind direction | speed knots | gust knots | rain 1hr in | rain 24hr in | rain mn in | humidity % | barometer mb |
| 20260508141531 | 72 | 32 | 1.7 | 5.2 | 0.00 | 0.00 | 0.00 | 57 | 1041.8 |
| 20260508140129 | 71 | 23 | 1.7 | 9.6 | 0.00 | 0.00 | 0.00 | 62 | 1041.7 |
| 20260508134528 | 72 | 341 | 1.7 | 8.7 | 0.00 | 0.00 | 0.00 | 65 | 1041.7 |
| 20260508133029 | 72 | 342 | 2.6 | 7.8 | 0.00 | 0.00 | 0.00 | 64 | 1041.5 |
| 20260508131527 | 73 | 339 | 2.6 | 7.8 | 0.00 | 0.00 | 0.00 | 62 | 1041.7 |
| 20260508130027 | 75 | 10 | 1.7 | 7.8 | 0.00 | 0.00 | 0.00 | 59 | 1041.6 |
| 20260508124525 | 76 | 279 | 0.9 | 4.3 | 0.00 | 0.00 | 0.00 | 50 | 1041.7 |
| 20260508123023 | 76 | 327 | 1.7 | 3.5 | 0.00 | 0.00 | 0.00 | 57 | 1041.8 |
| 20260508121521 | 76 | 344 | 1.7 | 7.8 | 0.00 | 0.00 | 0.00 | 57 | 1042.0 |
| 20260508120021 | 76 | 318 | 1.7 | 4.3 | 0.00 | 0.00 | 0.00 | 55 | 1042.1 |
| 20260508114519 | 76 | 355 | 1.7 | 5.2 | 0.00 | 0.00 | 0.00 | 54 | 1041.9 |
| 20260508113018 | 76 | 329 | 1.7 | 5.2 | 0.00 | 0.00 | 0.00 | 55 | 1042.0 |
| 20260508111517 | 75 | 13 | 1.7 | 3.5 | 0.00 | 0.00 | 0.00 | 55 | 1042.2 |
| 20260508110015 | 75 | 5 | 1.7 | 7.0 | 0.00 | 0.00 | 0.00 | 56 | 1042.2 |
| 20260508104516 | 75 | 9 | 1.7 | 4.3 | 0.00 | 0.00 | 0.00 | 56 | 1042.1 |
| 20260508103019 | 75 | 346 | 2.6 | 5.2 | 0.00 | 0.00 | 0.00 | 55 | 1042.0 |
| 20260508101513 | 75 | 333 | 2.6 | 8.7 | 0.00 | 0.00 | 0.00 | 55 | 1042.1 |
| 20260508100020 | 75 | 41 | 3.5 | 7.8 | 0.00 | 0.00 | 0.00 | 57 | 1042.3 |
| 20260508094509 | 74 | 355 | 1.7 | 8.7 | 0.00 | 0.00 | 0.00 | 57 | 1042.3 |
| 20260508093007 | 74 | 26 | 2.6 | 9.6 | 0.00 | 0.00 | 0.00 | 57 | 1042.5 |
| 20260508091505 | 74 | 355 | 3.5 | 9.6 | 0.00 | 0.00 | 0.00 | 56 | 1042.6 |
| 20260508090004 | 74 | 26 | 3.5 | 9.6 | 0.00 | 0.00 | 0.00 | 52 | 1042.7 |
| 20260508084502 | 74 | 338 | 0.9 | 7.8 | 0.00 | 0.00 | 0.00 | 53 | 1042.6 |
| 20260508083108 | 74 | 27 | 2.6 | 7.8 | 0.00 | 0.00 | 0.00 | 50 | 1042.6 |
| 20260508081555 | 73 | 20 | 3.5 | 8.7 | 0.00 | 0.00 | 0.00 | 51 | 1042.9 |
| 20260508080110 | 73 | 39 | 2.6 | 7.8 | 0.00 | 0.00 | 0.00 | 51 | 1042.8 |
| 20260508074548 | 72 | 22 | 0.9 | 7.0 | 0.00 | 0.00 | 0.00 | 49 | 1042.9 |
| 20260508073052 | 72 | 38 | 2.6 | 8.7 | 0.00 | 0.00 | 0.00 | 49 | 1042.9 |
| 20260508071542 | 72 | 51 | 1.7 | 7.8 | 0.00 | 0.00 | 0.00 | 49 | 1043.0 |
| 20260508070035 | 72 | 34 | 1.7 | 4.3 | 0.00 | 0.00 | 0.00 | 51 | 1042.9 |
| 20260508064542 | 72 | 40 | 1.7 | 4.3 | 0.00 | 0.00 | 0.00 | 51 | 1043.3 |
| 20260508063029 | 71 | 57 | 1.7 | 5.2 | 0.00 | 0.00 | 0.00 | 52 | 1043.2 |
| 20260508061523 | 70 | 42 | 0.9 | 5.2 | 0.00 | 0.00 | 0.00 | 55 | 1043.2 |
| 20260508060017 | 68 | 49 | 0.9 | 3.5 | 0.00 | 0.00 | 0.00 | 64 | 1043.4 |
| 20260508054526 | 67 | 49 | 2.6 | 3.5 | 0.00 | 0.00 | 0.00 | 62 | 1043.4 |
| 20260508053009 | 65 | 24 | 0.9 | 1.7 | 0.00 | 0.00 | 0.00 | 66 | 1043.3 |
| 20260508051505 | 64 | 54 | 1.7 | 2.6 | 0.00 | 0.00 | 0.00 | 71 | 1043.3 |
| 20260508050002 | 62 | 15 | 0.0 | 0.9 | 0.00 | 0.00 | 0.00 | 80 | 1043.2 |
| 20260508044558 | 58 | 15 | 0.0 | 0.0 | 0.00 | 0.00 | 0.00 | 79 | 1043.2 |
| 20260508043053 | 56 | 15 | 0.0 | 0.0 | 0.00 | 0.00 | 0.00 | 83 | 1043.3 |
| 20260508041550 | 55 | 293 | 0.0 | 1.7 | 0.00 | 0.00 | 0.00 | 84 | 1043.2 |
| 20260508040053 | 53 | 142 | 0.0 | 0.9 | 0.00 | 0.00 | 0.00 | 82 | 1043.1 |
| 20260508034544 | 51 | 142 | 0.0 | 0.9 | 0.00 | 0.00 | 0.00 | 83 | 1042.9 |
| 20260508033036 | 50 | 101 | 0.9 | 2.6 | 0.00 | 0.00 | 0.00 | 82 | 1042.9 |
| 20260508031533 | 50 | 183 | 0.9 | 2.6 | 0.00 | 0.00 | 0.00 | 82 | 1042.6 |
| 20260508030028 | 50 | 183 | 1.7 | 3.5 | 0.00 | 0.00 | 0.00 | 81 | 1042.9 |
| 20260508024527 | 50 | 175 | 0.0 | 3.5 | 0.00 | 0.00 | 0.00 | 80 | 1042.7 |
| 20260508023024 | 51 | 182 | 1.7 | 3.5 | 0.00 | 0.00 | 0.00 | 81 | 1042.5 |
| 20260508021523 | 51 | 194 | 2.6 | 4.3 | 0.00 | 0.00 | 0.00 | 81 | 1042.4 |
| 20260508020021 | 51 | 177 | 1.7 | 4.3 | 0.00 | 0.00 | 0.00 | 82 | 1042.2 |
| 20260508014521 | 51 | 190 | 2.6 | 7.0 | 0.00 | 0.00 | 0.00 | 82 | 1042.3 |
| 20260508013017 | 51 | 199 | 2.6 | 5.2 | 0.00 | 0.00 | 0.00 | 82 | 1042.3 |
| 20260508011516 | 51 | 190 | 1.7 | 5.2 | 0.00 | 0.00 | 0.00 | 83 | 1042.4 |
| 20260508010015 | 51 | 180 | 0.9 | 5.2 | 0.00 | 0.00 | 0.00 | 84 | 1042.5 |
| 20260508004513 | 51 | 189 | 2.6 | 4.3 | 0.00 | 0.00 | 0.00 | 84 | 1042.6 |
| 20260508003012 | 51 | 194 | 1.7 | 3.5 | 0.00 | 0.00 | 0.00 | 85 | 1042.9 |
| 20260508001513 | 51 | 182 | 1.7 | 3.5 | 0.00 | 0.00 | 0.00 | 86 | 1043.0 |
| 20260508000009 | 52 | 178 | 2.6 | 3.5 | 0.00 | 0.00 | 0.00 | 87 | 1042.8 |
| 20260507234513 | 52 | 185 | 1.7 | 3.5 | 0.00 | 0.00 | 0.00 | 87 | 1042.9 |
| 20260507233013 | 51 | 169 | 0.9 | 2.6 | 0.00 | 0.00 | 0.00 | 88 | 1042.9 |
| 20260507231506 | 51 | 167 | 0.0 | 5.2 | 0.00 | 0.00 | 0.00 | 88 | 1043.1 |
| 20260507230013 | 51 | 186 | 1.7 | 3.5 | 0.00 | 0.00 | 0.00 | 88 | 1043.0 |
| 20260507224507 | 51 | 193 | 0.9 | 2.6 | 0.00 | 0.00 | 0.00 | 88 | 1043.3 |
| 20260507223003 | 51 | 195 | 1.7 | 3.5 | 0.00 | 0.00 | 0.00 | 88 | 1043.5 |
| 20260507221501 | 51 | 196 | 0.0 | 2.6 | 0.00 | 0.00 | 0.00 | 88 | 1043.5 |
| 20260507220100 | 51 | 196 | 1.7 | 2.6 | 0.00 | 0.00 | 0.00 | 89 | 1043.7 |
| 20260507214603 | 51 | 175 | 1.7 | 5.2 | 0.00 | 0.00 | 0.00 | 89 | 1043.9 |
| 20260507213101 | 52 | 180 | 1.7 | 4.3 | 0.00 | 0.00 | 0.00 | 91 | 1043.8 |
| 20260507211602 | 52 | 192 | 2.6 | 4.3 | 0.00 | 0.00 | 0.00 | 91 | 1043.8 |
| 20260507210110 | 53 | 184 | 0.0 | 3.5 | 0.00 | 0.00 | 0.00 | 92 | 1043.8 |
| 20260507204553 | 54 | 180 | 1.7 | 3.5 | 0.00 | 0.00 | 0.00 | 92 | 1043.9 |
| 20260507203052 | 54 | 194 | 1.7 | 3.5 | 0.00 | 0.00 | 0.00 | 93 | 1043.9 |
| 20260507201550 | 54 | 189 | 1.7 | 4.3 | 0.00 | 0.00 | 0.00 | 92 | 1043.9 |
| 20260507200055 | 55 | 179 | 0.9 | 4.3 | 0.00 | 0.00 | 0.00 | 92 | 1044.0 |
| 20260507194556 | 55 | 194 | 2.6 | 4.3 | 0.00 | 0.00 | 0.00 | 92 | 1044.2 |
| 20260507193049 | 56 | 194 | 0.9 | 4.3 | 0.00 | 0.00 | 0.00 | 92 | 1044.2 |
| 20260507191549 | 57 | 204 | 0.9 | 2.6 | 0.00 | 0.00 | 0.00 | 91 | 1044.2 |
| 20260507190056 | 57 | 204 | 0.0 | 0.0 | 0.00 | 0.00 | 0.00 | 90 | 1044.2 |
| 20260507184548 | 58 | 204 | 0.0 | 1.7 | 0.00 | 0.00 | 0.00 | 90 | 1044.1 |
| 20260507183109 | 58 | 204 | 0.0 | 0.9 | 0.00 | 0.00 | 0.00 | 90 | 1044.1 |
| 20260507181545 | 58 | 204 | 0.0 | 1.7 | 0.00 | 0.00 | 0.00 | 90 | 1043.8 |
| 20260507180042 | 59 | 204 | 0.0 | 1.7 | 0.00 | 0.00 | 0.00 | 89 | 1043.5 |
| 20260507174542 | 59 | 204 | 0.0 | 2.6 | 0.00 | 0.00 | 0.00 | 89 | 1043.3 |
| 20260507173047 | 59 | 213 | 0.0 | 0.9 | 0.00 | 0.00 | 0.00 | 88 | 1043.2 |
| 20260507171540 | 59 | 213 | 0.0 | 0.0 | 0.00 | 0.00 | 0.00 | 87 | 1043.1 |
| 20260507170043 | 59 | 213 | 0.0 | 1.7 | 0.00 | 0.00 | 0.00 | 87 | 1043.1 |
| 20260507164555 | 60 | 212 | 0.0 | 3.5 | 0.00 | 0.00 | 0.00 | 85 | 1043.2 |
| 20260507163039 | 62 | 192 | 0.9 | 6.1 | 0.00 | 0.00 | 0.00 | 82 | 1043.3 |
| 20260507161550 | 63 | 44 | 0.9 | 3.5 | 0.00 | 0.00 | 0.00 | 80 | 1043.0 |
| 20260507160037 | 64 | 19 | 0.0 | 2.6 | 0.00 | 0.00 | 0.00 | 78 | 1042.6 |
| 20260507154537 | 64 | 329 | 1.7 | 2.6 | 0.00 | 0.00 | 0.00 | 78 | 1042.5 |
| 20260507153041 | 65 | 277 | 1.7 | 3.5 | 0.00 | 0.00 | 0.00 | 77 | 1042.5 |
| 20260507151537 | 66 | 293 | 0.9 | 4.3 | 0.00 | 0.00 | 0.00 | 75 | 1042.5 |
| 20260507150036 | 66 | 266 | 2.6 | 6.1 | 0.00 | 0.00 | 0.00 | 74 | 1042.3 |
| 20260507144537 | 66 | 286 | 0.9 | 4.3 | 0.00 | 0.00 | 0.00 | 75 | 1042.4 |
| 20260507143039 | 66 | 289 | 2.6 | 7.0 | 0.00 | 0.00 | 0.00 | 74 | 1042.3 |